Vorticity
9 7 6 7 5 4 7 6 5 6 6 6 7 6 6 7 7 7 6 6 6 6 6 5 5 4 5 5 6 7 8 8 7 7 6 7 7 6 3 1 1 1 2 2 4 4 4 5 5 5 6 5 5 5 4 6 6 7 8 8 12 11 6 6 7 6 6 5 6 8 6 7 5 5 5 5 5 5 6 6 6 6 5 4 4
9 8 6 6 7 5 6 6 6 6 7 7 6 6 6 7 7 7 7 6 7 5 5 5 5 5 5 5 5 6 8 8 7 7 7 7 6 3 1 1 1 1 3 3 5 5 5 6 6 7 8 7 7 7 6 5 5 6 8 10 12 9 6 6 7 8 7 5 6 7 6 6 5 6 5 5 5 5 6 6 6 5 4 4 3
10 8 7 6 7 5 6 6 6 7 7 7 6 6 6 6 6 6 7 6 6 5 5 6 6 6 6 5 5 6 8 8 7 7 8 6 4 2 1 2 2 3 3 4 6 6 7 8 8 7 8 8 6 8 10 9 9 8 8 10 11 7 6 6 7 8 7 5 5 6 6 5 5 6 4 4 4 4 6 6 5 5 5 4 3
9 8 7 5 5 6 8 7 6 6 6 6 6 6 5 5 5 5 6 5 5 5 6 6 6 6 6 5 5 5 7 9 8 7 6 4 3 2 1 2 3 3 3 4 6 7 8 8 8 6 6 9 6 8 9 10 11 9 9 9 9 6 6 6 7 8 6 5 5 5 6 5 4 5 4 3 4 5 6 6 5 5 4 4 5
8 7 6 4 6 7 6 6 5 6 6 6 5 5 5 5 5 5 5 5 5 5 5 6 6 6 6 6 5 5 8 8 6 6 5 4 3 1 2 3 3 3 4 6 6 7 8 7 7 5 6 9 10 10 10 10 10 10 11 9 7 6 7 7 8 6 6 6 6 5 5 6 5 4 4 3 5 6 6 6 4 5 5 5 6
8 6 6 6 7 7 5 6 6 7 6 5 5 5 5 5 6 5 5 5 5 5 6 6 6 6 7 7 6 6 7 6 6 5 4 4 3 2 2 3 3 5 6 7 8 7 7 6 6 6 7 10 10 12 12 10 9 11 11 8 6 6 7 7 7 5 6 6 6 6 4 6 6 3 4 4 5 6 6 5 4 5 5 5 5
7 5 6 6 6 7 6 6 7 7 6 6 6 5 5 6 5 5 5 5 6 6 6 7 7 7 8 7 6 7 7 6 7 5 3 4 4 4 3 2 3 6 7 7 7 7 6 7 8 7 7 9 10 12 13 10 10 12 8 5 7 8 7 7 7 5 6 6 5 6 4 5 5 4 6 6 6 7 5 4 4 5 5 4 4
7 6 6 6 6 6 6 6 6 6 6 6 5 6 6 5 5 5 5 6 6 6 7 8 8 9 10 9 8 9 8 6 6 5 4 4 5 4 4 4 5 7 8 7 7 6 6 8 9 10 11 11 11 11 11 10 10 9 5 5 9 9 8 8 7 6 6 5 5 6 5 4 4 6 8 8 7 6 5 4 5 5 4 4 4
7 6 7 6 5 5 6 6 5 5 5 5 6 6 6 5 5 5 6 6 6 7 8 9 9 10 10 10 11 10 7 6 6 5 5 5 4 4 5 4 5 8 8 7 7 7 9 10 9 13 15 13 13 12 11 10 9 8 7 9 11 10 8 8 7 6 5 5 5 5 5 6 7 8 8 8 6 4 4 5 5 4 4 4 5
6 5 7 6 4 5 5 5 5 6 5 5 6 6 6 6 7 7 7 6 7 8 9 9 9 9 9 10 11 8 7 11 9 6 6 6 5 5 6 5 6 8 7 7 8 9 11 10 11 15 14 11 12 15 13 9 9 9 10 11 10 9 9 7 6 6 5 6 6 6 7 8 9 9 8 7 5 4 4 4 4 4 5 5 5
6 4 6 5 4 4 4 5 5 6 6 7 6 6 7 8 8 7 6 6 7 8 9 8 9 9 10 11 10 8 10 13 11 8 7 6 6 6 6 7 8 7 7 7 8 12 12 10 13 15 14 11 9 15 15 8 10 9 11 13 9 8 8 6 6 6 6 7 7 7 7 7 7 7 6 5 4 4 4 4 4 5 5 6 8
6 4 5 5 4 3 4 5 6 7 8 8 7 8 8 9 8 6 6 6 7 8 9 9 9 9 9 11 10 10 13 11 9 9 8 6 7 7 9 9 8 7 6 7 8 11 10 9 12 11 12 13 10 12 13 9 10 11 12 12 7 7 7 7 7 7 6 6 5 5 5 5 6 6 5 4 4 4 4 5 6 6 7 9 10
5 4 4 5 4 4 5 6 8 9 9 8 7 8 8 8 7 7 6 6 7 7 9 9 9 10 9 10 10 10 10 8 8 9 7 6 6 7 9 9 8 7 6 7 9 10 9 8 10 10 9 12 12 11 10 10 10 10 10 8 7 8 7 7 6 5 4 4 5 4 5 5 6 6 5 5 5 4 6 6 6 8 9 10 9
5 3 4 4 4 4 5 6 8 9 9 7 6 7 7 7 7 7 6 6 7 7 8 9 9 9 9 11 11 10 9 8 9 9 8 8 8 7 7 8 7 6 6 7 9 9 8 8 9 9 8 9 11 10 7 9 9 7 7 7 7 6 5 5 4 4 4 4 4 4 6 7 8 7 7 6 5 6 7 7 8 10 11 9 7
7 3 4 4 4 4 5 6 8 8 7 6 6 6 6 7 8 7 6 6 6 7 9 9 8 8 9 9 9 11 12 10 9 8 8 8 9 8 7 7 6 5 5 6 8 9 7 7 8 8 8 8 9 8 6 8 9 6 6 6 4 4 4 4 4 3 2 2 4 7 9 9 10 8 7 6 6 8 9 10 11 11 10 7 7
8 4 4 5 5 4 5 6 7 7 5 5 5 5 6 7 8 7 6 6 7 8 9 9 8 8 10 10 10 11 11 10 10 10 9 9 8 8 8 7 5 4 4 6 7 8 7 7 7 7 6 6 7 8 8 9 7 4 5 4 3 4 4 4 2 0 0 4 8 9 9 8 8 7 7 7 9 11 12 12 11 10 7 6 7
8 5 4 5 5 4 5 6 6 7 5 4 5 6 5 6 7 7 7 7 7 7 8 8 8 8 9 8 9 10 9 9 10 11 9 8 8 8 8 6 5 4 3 4 4 6 8 7 6 7 6 6 8 7 7 7 5 4 3 3 3 4 4 3 1 0 4 9 10 8 7 8 8 8 9 10 12 13 12 11 8 7 6 7 7
8 5 3 4 5 4 6 6 6 6 5 5 6 6 5 6 6 7 7 8 7 6 7 7 9 10 10 9 9 9 8 9 9 10 9 9 8 7 7 6 4 3 2 3 3 6 7 6 5 6 6 6 6 5 5 5 5 4 3 3 3 4 4 3 4 6 9 10 8 8 9 10 11 12 12 13 13 11 9 7 6 7 7 8 7
8 5 3 4 5 5 6 6 6 5 5 5 6 6 6 6 6 7 7 7 7 6 7 7 8 8 9 11 10 9 8 8 8 9 8 8 7 7 7 5 4 3 3 3 4 6 6 5 5 5 6 6 5 6 7 6 6 4 4 5 5 6 7 8 9 10 10 9 10 11 12 12 13 12 12 11 9 7 6 7 7 8 8 8 8
9 6 2 3 5 5 6 6 6 5 5 5 6 6 6 6 6 6 7 7 7 6 7 7 8 7 9 10 9 9 8 8 8 7 7 7 7 7 7 5 5 5 4 5 6 7 7 6 6 6 6 6 7 8 9 9 8 8 7 7 7 8 10 10 10 10 11 12 13 12 12 12 11 10 9 7 7 6 7 8 8 8 9 8 8
9 7 2 2 5 5 5 6 6 5 5 6 6 6 6 7 6 5 6 6 6 6 6 6 7 8 9 10 9 9 8 8 7 6 6 6 6 6 6 5 5 5 4 6 7 8 8 8 7 8 7 7 7 7 8 9 9 9 9 9 9 9 9 10 10 12 13 12 12 10 10 9 7 7 6 6 7 8 8 8 8 8 9 7 6
9 8 3 2 5 6 4 5 7 4 4 6 6 6 6 7 6 5 6 6 6 6 6 5 6 7 8 9 9 8 8 8 7 6 6 6 6 6 6 5 5 5 4 6 7 8 7 7 6 7 7 6 6 5 6 8 7 8 10 10 10 10 10 10 11 11 10 9 8 8 7 6 6 7 7 8 8 8 8 8 7 7 6 5 5
10 8 4 2 4 6 4 5 7 5 4 6 7 7 6 7 6 6 6 6 6 7 7 5 6 6 6 8 9 9 8 7 7 6 6 6 6 6 7 6 5 5 4 6 8 7 6 5 5 4 5 4 5 6 6 7 8 9 10 10 10 10 10 10 9 9 8 8 7 7 7 7 8 8 8 8 7 7 8 8 9 9 9 10 11
8 10 4 2 4 5 5 5 7 6 4 6 7 6 6 7 6 6 6 7 7 7 6 6 6 5 4 6 7 9 9 9 8 8 7 7 7 7 7 6 6 5 4 6 6 5 4 5 5 5 5 6 7 7 8 9 10 11 10 10 9 9 9 8 8 8 8 8 9 8 8 8 8 7 8 8 9 10 10 10 10 10 10 9 9
7 11 6 2 4 5 5 6 7 6 5 6 6 6 7 7 7 7 6 7 7 6 5 5 6 6 5 5 5 7 8 8 9 10 9 10 10 9 9 8 8 7 6 6 6 5 6 6 7 7 7 8 8 8 9 10 10 10 9 9 9 8 8 8 8 8 8 8 8 8 7 7 8 9 9 10 10 9 8 7 6 6 5 5 5
6 10 8 3 4 5 5 6 7 6 5 7 5 6 7 8 9 8 7 6 7 7 6 6 7 7 7 6 5 5 5 6 7 8 9 10 11 11 11 11 11 11 10 9 9 9 9 9 9 9 9 10 9 8 9 9 9 9 9 9 8 8 7 7 7 7 7 7 7 7 7 8 9 9 9 7 6 4 4 3 4 4 4 4 5
6 9 10 5 4 5 6 6 7 6 5 7 5 6 7 7 8 8 6 5 6 6 6 6 6 7 8 8 7 7 7 6 6 7 8 8 9 10 11 12 12 12 12 11 12 12 12 11 11 11 11 10 9 8 8 8 7 7 8 8 8 7 6 6 7 7 7 7 6 6 7 8 8 7 5 4 3 3 4 4 5 5 5 6 6
7 7 10 6 4 5 6 6 7 6 5 6 5 5 6 6 6 7 6 5 4 4 5 6 6 7 8 9 9 8 8 8 7 6 7 7 7 8 9 10 10 11 12 12 13 13 12 12 11 11 11 10 9 8 7 7 6 6 6 7 7 7 7 7 7 7 6 6 6 6 7 7 6 5 3 2 3 4 5 5 6 6 7 7 8
8 7 9 7 4 4 6 8 7 6 5 5 6 5 5 5 5 6 6 6 4 2 4 6 6 7 8 8 8 8 8 8 8 6 6 6 6 7 8 9 9 10 11 11 11 12 12 12 12 11 10 10 9 8 7 6 6 6 7 7 7 7 7 7 6 6 6 6 6 7 7 6 5 3 2 2 4 5 6 6 7 8 8 9 9
9 6 9 7 5 3 6 9 7 6 5 5 5 5 5 5 5 5 6 6 4 2 4 6 6 7 8 7 7 9 9 7 7 7 6 5 5 6 7 8 9 10 10 10 10 10 10 11 11 10 10 9 8 7 6 6 6 6 7 7 7 7 6 6 6 6 6 6 6 6 6 5 4 2 2 3 5 6 7 7 8 9 10 10 9
9 6 8 7 5 3 5 8 9 6 5 6 5 5 5 5 5 5 5 6 5 4 5 6 7 7 7 7 7 9 9 8 6 7 6 5 5 6 6 7 8 9 9 9 9 8 8 8 8 8 8 8 7 7 7 7 7 7 7 7 6 6 5 5 5 5 6 6 6 6 5 5 4 3 3 4 6 7 7 8 10 10 10 8 6
9 7 7 7 6 4 5 7 9 7 5 7 6 5 5 5 5 5 5 6 6 7 7 7 7 7 7 6 6 8 9 8 7 7 6 5 4 5 6 7 7 7 7 7 7 7 7 7 7 7 7 6 6 7 7 7 7 7 6 6 5 5 5 5 5 5 5 6 6 5 4 4 4 4 4 5 8 8 7 9 11 10 7 5 5
9 8 7 7 6 4 4 6 10 8 5 6 6 5 5 5 5 5 6 6 7 7 8 8 5 6 7 6 6 6 7 7 7 7 6 5 4 4 5 6 7 7 7 6 6 6 6 7 6 6 6 6 6 7 7 7 7 7 6 5 5 5 5 5 6 6 6 6 6 5 4 4 4 5 5 7 8 7 8 11 10 7 5 6 8
9 9 9 7 5 5 4 5 10 9 4 5 6 5 5 5 6 6 6 7 7 7 7 8 6 5 6 6 5 6 6 6 7 7 6 4 3 3 4 5 6 6 6 6 6 6 6 7 6 6 6 5 6 6 6 6 7 7 6 5 5 5 5 5 6 6 7 8 7 6 5 5 5 6 7 9 8 6 8 11 9 6 6 9 10
9 9 11 10 6 5 5 4 8 10 5 4 6 5 5 5 6 6 5 6 7 7 7 7 7 6 5 5 5 6 6 6 6 7 7 5 4 3 3 4 5 5 6 6 7 7 7 7 6 6 5 5 6 6 6 6 6 6 6 5 5 5 5 5 6 6 7 8 8 7 6 6 6 7 9 8 6 7 9 10 7 6 7 10 11
9 8 11 13 8 4 5 4 6 10 5 4 5 4 4 5 5 5 4 6 7 7 6 6 6 6 6 5 5 6 6 6 5 6 7 7 6 4 3 3 3 3 5 5 6 6 7 7 7 6 6 6 6 5 6 6 6 6 6 6 5 5 5 5 6 7 7 8 9 8 7 6 7 8 9 8 7 9 11 9 6 6 9 11 11
9 8 10 15 12 5 4 4 5 8 7 5 5 4 4 5 5 5 4 6 9 9 7 6 6 6 6 6 6 6 6 6 5 5 6 7 8 7 5 4 2 2 3 4 4 5 5 6 7 7 7 6 6 6 6 6 6 6 6 6 5 5 5 6 6 6 6 8 9 8 7 7 8 9 9 8 9 12 12 8 5 7 10 11 10
10 9 10 16 15 6 4 5 5 7 7 5 5 5 4 4 5 5 5 7 10 9 7 6 6 6 7 7 7 6 6 6 5 5 5 6 6 7 7 7 5 3 3 3 4 3 3 4 5 6 6 7 6 6 6 6 6 6 6 5 5 5 5 6 6 6 7 7 8 8 7 7 9 9 8 9 11 12 10 6 6 10 11 10 9
9 9 9 14 16 9 5 6 5 7 8 6 5 5 4 4 5 5 4 7 9 8 7 6 6 6 6 7 8 7 7 6 6 6 5 5 5 5 6 7 7 6 5 5 5 4 4 3 3 4 5 5 6 7 6 6 6 6 5 4 4 4 5 5 5 6 7 8 8 7 8 9 9 9 9 10 11 10 7 5 8 10 10 10 8
9 9 8 11 15 9 5 6 5 6 8 6 5 5 4 4 5 5 5 6 8 8 7 6 6 6 6 7 8 8 7 7 7 6 6 6 6 6 5 6 6 6 6 5 5 5 5 5 4 4 4 5 6 7 7 7 7 6 6 5 5 5 5 6 6 7 8 8 8 8 9 9 8 9 10 10 9 7 5 6 9 10 10 8 6
8 9 8 9 14 11 5 5 6 7 8 6 5 4 4 5 6 5 5 7 8 7 7 7 7 7 7 7 8 8 7 7 7 7 7 7 8 8 7 6 6 6 5 5 5 5 5 6 6 5 5 6 7 8 8 8 8 7 7 7 7 7 6 7 7 7 8 8 8 9 9 8 8 10 11 8 6 6 5 7 10 12 10 6 4
8 9 8 8 13 13 8 4 5 8 8 6 5 4 3 5 8 7 6 8 9 8 7 8 7 7 7 7 7 7 7 7 7 8 8 8 10 10 9 8 8 7 6 6 5 5 5 6 7 6 6 6 7 7 8 8 8 8 9 8 8 8 8 8 7 7 9 8 8 9 8 7 9 11 10 5 4 5 6 9 13 11 6 3 3
7 9 10 8 11 14 11 5 5 8 8 6 5 4 4 7 8 8 8 9 10 8 6 7 7 6 6 7 8 7 6 7 7 7 8 9 10 11 10 9 10 9 9 9 8 7 7 7 8 8 8 7 7 7 7 9 9 9 9 9 8 8 9 9 7 8 9 8 8 8 7 9 12 11 7 5 5 5 7 12 12 7 3 2 4
6 7 9 9 9 12 13 9 6 9 9 7 4 3 5 7 7 8 8 7 8 8 8 9 7 6 6 7 7 7 6 7 7 7 8 9 8 8 8 9 9 10 10 11 10 10 9 9 9 8 8 8 8 8 8 9 10 10 9 9 9 10 9 9 8 8 9 8 7 7 7 12 12 7 5 6 5 6 10 12 8 3 3 4 5
6 5 7 8 8 10 14 12 9 10 10 7 4 2 4 7 7 7 7 6 7 8 9 9 8 6 6 7 7 6 6 6 7 8 8 8 7 7 7 7 8 9 10 10 10 10 11 10 9 8 8 8 8 9 8 9 10 10 9 10 11 10 9 9 8 7 7 7 7 8 9 12 9 5 6 6 5 8 11 9 4 2 4 5 6
6 6 6 8 7 9 14 15 12 12 11 7 4 3 3 6 6 6 5 5 7 8 9 9 8 6 6 7 7 6 6 7 7 7 7 7 7 7 7 8 8 8 8 9 9 10 10 9 8 8 8 8 8 9 8 8 9 9 10 11 11 9 8 9 8 6 6 7 9 10 10 10 7 5 7 6 6 9 10 6 3 3 4 4 5
6 6 6 7 7 7 12 16 14 12 12 9 5 4 4 5 6 5 4 6 8 8 8 9 8 7 6 6 6 7 7 6 6 6 6 7 7 7 8 8 8 8 8 8 9 9 8 8 8 7 7 8 9 9 8 8 8 8 9 11 11 9 8 9 8 6 7 7 9 10 9 8 6 6 7 7 8 9 7 4 3 3 3 4 5
9 7 6 6 6 6 9 14 14 12 12 11 7 4 4 5 5 4 4 8 10 8 9 10 8 7 6 5 6 7 7 6 6 6 6 7 7 7 8 8 8 8 8 7 8 8 7 6 7 6 6 8 9 9 8 8 8 8 10 10 10 9 8 9 8 7 7 7 9 9 8 7 7 7 7 7 8 7 5 3 3 3 3 3 5
10 9 7 6 6 6 8 12 14 12 12 12 8 5 5 4 4 5 7 10 10 8 9 11 9 7 5 5 5 6 8 6 5 6 6 6 7 6 7 8 8 7 7 7 6 6 6 5 6 7 8 8 9 8 7 8 9 9 10 10 9 9 8 8 7 7 8 8 8 8 7 7 7 7 7 7 7 5 4 3 3 3 3 4 5
10 10 11 10 7 7 8 11 13 12 11 12 8 4 4 3 4 10 12 11 9 7 8 10 10 8 5 4 5 6 8 7 4 6 6 5 6 6 7 7 7 7 6 6 5 4 5 6 8 10 9 8 7 7 7 8 11 10 9 9 9 8 7 7 6 7 8 8 8 6 5 6 7 7 7 7 5 4 5 4 4 2 1 3 5
10 11 14 13 8 6 8 11 13 12 11 12 8 3 3 2 4 10 12 9 8 7 8 9 10 8 5 4 4 5 7 6 5 5 6 6 6 7 7 7 7 6 5 5 4 4 6 8 10 9 8 7 7 8 9 10 11 10 8 9 9 8 7 6 7 7 8 8 7 5 5 5 7 7 7 6 5 5 5 5 4 3 0 2 5
Height
5905 5905 5905 5906 5907 5907 5907 5907 5907 5908 5908 5909 5909 5909 5910 5910 5910 5910 5909 5909 5908 5908 5909 5910 5910 5911 5911 5911 5911 5911 5911 5912 5912 5912 5913 5913 5913 5913 5913 5913 5912 5913 5914 5915 5915 5915 5915 5915 5915 5915 5916 5916 5915 5915 5915 5915 5916 5916 5917 5918 5919 5919 5919 5919 5919 5919 5919 5921 5923 5922 5922 5922 5922 5921 5922 5922 5922 5922 5922 5923 5923 5924 5924 5924 5924
5907 5907 5907 5907 5908 5908 5908 5909 5910 5911 5911 5911 5911 5911 5911 5911 5911 5910 5910 5910 5909 5910 5910 5910 5910 5911 5911 5911 5911 5912 5912 5912 5913 5913 5913 5913 5914 5914 5915 5915 5913 5912 5913 5913 5914 5915 5915 5915 5915 5916 5917 5917 5917 5916 5917 5916 5915 5915 5916 5917 5919 5919 5920 5920 5920 5919 5920 5921 5923 5922 5922 5923 5922 5922 5923 5923 5923 5923 5923 5924 5924 5924 5924 5924 5924
5909 5909 5909 5909 5910 5910 5911 5911 5912 5912 5912 5912 5912 5912 5912 5912 5912 5911 5911 5911 5911 5911 5911 5911 5911 5911 5911 5911 5912 5912 5913 5913 5913 5913 5913 5914 5915 5916 5916 5916 5915 5913 5912 5912 5913 5914 5914 5915 5916 5917 5917 5917 5917 5918 5918 5918 5917 5916 5916 5917 5918 5919 5920 5921 5921 5920 5920 5921 5922 5922 5922 5923 5923 5923 5923 5923 5924 5924 5924 5925 5925 5925 5925 5925 5925
5910 5911 5911 5911 5912 5912 5913 5913 5913 5913 5913 5913 5913 5913 5913 5913 5913 5913 5912 5912 5912 5912 5912 5911 5911 5912 5912 5912 5912 5913 5914 5914 5913 5913 5914 5915 5916 5917 5916 5917 5916 5915 5913 5913 5913 5912 5914 5916 5917 5916 5915 5915 5916 5918 5919 5918 5918 5918 5917 5917 5918 5920 5921 5921 5921 5921 5921 5921 5922 5923 5923 5923 5923 5923 5923 5924 5924 5925 5925 5925 5926 5926 5926 5926 5926
5911 5911 5912 5912 5913 5913 5914 5914 5914 5914 5914 5914 5914 5914 5915 5915 5914 5914 5913 5913 5913 5913 5912 5912 5912 5912 5913 5913 5913 5914 5915 5914 5914 5914 5914 5916 5916 5916 5916 5915 5915 5914 5915 5914 5914 5913 5915 5916 5915 5914 5914 5914 5915 5918 5919 5918 5918 5919 5918 5917 5918 5920 5921 5921 5922 5922 5922 5922 5922 5923 5923 5923 5923 5923 5924 5925 5925 5926 5926 5926 5926 5926 5926 5926 5927
5911 5912 5912 5913 5914 5914 5915 5915 5915 5915 5915 5915 5916 5916 5916 5916 5915 5914 5914 5914 5914 5914 5913 5913 5913 5913 5914 5914 5914 5915 5915 5915 5914 5914 5913 5914 5916 5916 5916 5914 5913 5915 5917 5916 5915 5916 5917 5916 5915 5915 5915 5914 5915 5918 5918 5917 5918 5919 5920 5919 5919 5920 5921 5922 5922 5923 5923 5923 5923 5923 5923 5923 5924 5924 5925 5926 5926 5927 5927 5927 5927 5927 5927 5927 5927
5912 5913 5913 5914 5915 5915 5916 5916 5916 5916 5916 5916 5917 5917 5917 5916 5915 5915 5914 5915 5915 5914 5914 5914 5914 5914 5915 5915 5915 5916 5916 5915 5915 5914 5913 5915 5917 5917 5917 5916 5915 5918 5920 5918 5917 5918 5918 5918 5918 5917 5917 5915 5914 5916 5917 5917 5917 5919 5920 5920 5921 5921 5921 5922 5923 5923 5924 5924 5924 5924 5924 5925 5925 5926 5927 5927 5928 5928 5928 5928 5928 5928 5928 5928 5927
5913 5914 5914 5915 5916 5916 5917 5917 5917 5917 5917 5917 5917 5917 5917 5916 5916 5916 5916 5916 5915 5915 5915 5915 5915 5915 5916 5916 5915 5915 5914 5915 5915 5915 5915 5916 5918 5918 5918 5919 5919 5920 5923 5921 5919 5918 5918 5919 5919 5919 5918 5917 5917 5917 5917 5917 5917 5918 5919 5921 5923 5922 5922 5924 5924 5924 5925 5925 5925 5925 5926 5926 5927 5927 5928 5929 5929 5929 5929 5929 5929 5928 5928 5928 5928
5914 5915 5915 5916 5916 5917 5918 5917 5917 5917 5917 5917 5918 5918 5917 5917 5917 5917 5917 5917 5916 5916 5916 5916 5916 5916 5916 5916 5914 5913 5914 5916 5917 5916 5916 5917 5918 5918 5919 5920 5920 5921 5923 5922 5920 5919 5918 5919 5919 5919 5919 5919 5919 5919 5918 5918 5918 5918 5919 5921 5924 5924 5924 5925 5925 5925 5925 5926 5926 5927 5927 5928 5928 5929 5929 5930 5930 5930 5930 5930 5929 5929 5929 5929 5928
5915 5916 5916 5917 5917 5918 5918 5917 5918 5918 5918 5918 5918 5918 5918 5918 5918 5918 5918 5918 5917 5917 5917 5916 5916 5916 5916 5915 5913 5914 5917 5919 5919 5918 5917 5917 5918 5918 5919 5919 5920 5922 5922 5921 5920 5919 5919 5919 5918 5918 5918 5918 5919 5921 5920 5918 5919 5920 5920 5921 5924 5926 5926 5926 5926 5926 5926 5927 5928 5928 5929 5929 5929 5930 5930 5931 5931 5931 5930 5930 5930 5930 5930 5929 5929
5915 5916 5917 5917 5918 5918 5918 5918 5918 5918 5918 5919 5919 5919 5919 5919 5919 5919 5919 5919 5918 5918 5917 5917 5917 5917 5916 5915 5914 5916 5920 5920 5920 5919 5918 5918 5918 5919 5920 5920 5921 5922 5922 5920 5919 5919 5920 5919 5918 5918 5919 5918 5918 5921 5922 5919 5919 5921 5922 5923 5925 5928 5927 5926 5926 5926 5927 5928 5929 5930 5930 5930 5931 5931 5931 5931 5931 5931 5931 5931 5931 5931 5931 5930 5930
5915 5916 5917 5917 5918 5918 5918 5919 5919 5919 5919 5920 5920 5920 5920 5920 5920 5920 5920 5919 5919 5918 5918 5917 5917 5917 5916 5915 5915 5918 5921 5920 5919 5919 5918 5919 5919 5920 5921 5922 5922 5923 5922 5921 5919 5920 5920 5919 5919 5919 5920 5921 5921 5922 5923 5921 5921 5923 5925 5926 5927 5929 5927 5926 5927 5928 5929 5930 5931 5931 5931 5932 5932 5932 5932 5932 5932 5932 5932 5932 5932 5932 5931 5931 5930
5916 5917 5918 5918 5919 5919 5920 5920 5920 5920 5920 5920 5920 5920 5921 5921 5921 5920 5920 5920 5919 5919 5918 5918 5917 5918 5917 5917 5917 5920 5921 5921 5920 5920 5920 5920 5921 5921 5922 5923 5923 5923 5923 5922 5921 5922 5922 5921 5921 5921 5922 5923 5923 5924 5923 5922 5923 5925 5927 5928 5928 5929 5928 5928 5929 5929 5931 5931 5932 5932 5933 5933 5933 5933 5933 5933 5933 5933 5933 5933 5933 5932 5932 5932 5931
5917 5918 5919 5920 5920 5921 5921 5921 5921 5921 5921 5921 5921 5921 5921 5921 5921 5921 5921 5920 5920 5920 5919 5918 5918 5918 5918 5918 5918 5920 5922 5922 5922 5921 5921 5922 5923 5923 5924 5924 5924 5924 5924 5924 5924 5925 5926 5925 5924 5925 5924 5924 5925 5925 5923 5924 5926 5926 5927 5928 5928 5929 5929 5929 5931 5931 5932 5933 5934 5934 5934 5934 5934 5934 5934 5933 5933 5933 5933 5933 5933 5933 5933 5933 5932
5917 5918 5920 5921 5921 5921 5922 5921 5921 5921 5921 5921 5922 5922 5922 5922 5922 5922 5921 5921 5921 5921 5920 5920 5919 5919 5919 5919 5919 5920 5921 5922 5922 5922 5923 5924 5924 5924 5925 5925 5925 5926 5926 5927 5927 5928 5928 5927 5926 5926 5926 5926 5926 5926 5926 5927 5928 5926 5925 5927 5929 5930 5931 5932 5933 5933 5934 5935 5935 5935 5935 5934 5934 5934 5934 5934 5934 5934 5934 5934 5934 5934 5934 5934 5933
5917 5918 5920 5921 5921 5922 5922 5922 5922 5922 5922 5922 5923 5923 5924 5923 5923 5923 5922 5922 5922 5922 5921 5921 5920 5920 5920 5920 5920 5920 5921 5922 5923 5924 5924 5925 5925 5926 5926 5927 5927 5928 5928 5929 5929 5929 5929 5928 5928 5928 5927 5927 5926 5927 5928 5929 5928 5926 5926 5929 5931 5931 5933 5934 5935 5935 5936 5936 5936 5936 5935 5935 5935 5935 5935 5935 5935 5935 5935 5935 5935 5935 5935 5935 5935
5917 5919 5920 5921 5922 5922 5922 5922 5922 5923 5923 5923 5924 5924 5925 5924 5924 5924 5924 5924 5923 5923 5923 5922 5922 5922 5921 5922 5922 5921 5921 5922 5924 5925 5925 5926 5927 5927 5928 5929 5929 5929 5929 5930 5930 5930 5930 5930 5930 5929 5930 5929 5929 5929 5929 5929 5927 5927 5929 5931 5932 5933 5934 5935 5936 5937 5937 5937 5937 5936 5936 5936 5936 5936 5936 5936 5936 5936 5936 5936 5936 5936 5936 5936 5936
5918 5919 5921 5922 5922 5923 5923 5923 5923 5923 5924 5924 5925 5925 5926 5925 5925 5925 5925 5925 5925 5924 5924 5924 5923 5923 5923 5924 5924 5923 5923 5924 5925 5926 5927 5928 5929 5930 5930 5930 5930 5931 5931 5932 5931 5931 5930 5930 5930 5931 5933 5933 5931 5930 5930 5931 5931 5931 5932 5932 5934 5935 5936 5937 5937 5937 5938 5938 5937 5937 5937 5937 5936 5936 5936 5937 5937 5937 5937 5937 5937 5937 5937 5937 5937
5919 5920 5921 5922 5923 5924 5924 5924 5924 5924 5925 5925 5926 5927 5927 5927 5927 5927 5927 5926 5926 5926 5926 5925 5925 5925 5925 5925 5925 5925 5925 5925 5926 5927 5929 5930 5931 5932 5932 5931 5932 5932 5933 5933 5933 5932 5931 5930 5931 5932 5934 5933 5932 5932 5933 5933 5934 5933 5933 5934 5935 5936 5937 5938 5938 5938 5938 5938 5938 5938 5938 5937 5937 5937 5938 5938 5938 5938 5938 5938 5938 5938 5938 5938 5938
5920 5921 5922 5923 5924 5925 5925 5925 5925 5926 5926 5927 5927 5928 5928 5928 5928 5928 5928 5928 5928 5928 5928 5927 5927 5926 5926 5926 5927 5927 5927 5927 5928 5929 5929 5931 5931 5932 5932 5932 5933 5933 5934 5935 5934 5934 5933 5933 5933 5933 5934 5934 5934 5935 5935 5935 5935 5933 5933 5935 5936 5937 5938 5938 5939 5939 5939 5939 5939 5939 5939 5939 5939 5939 5939 5939 5939 5939 5939 5939 5939 5939 5939 5939 5939
5921 5922 5923 5924 5925 5925 5926 5926 5927 5927 5927 5928 5929 5929 5930 5930 5930 5930 5929 5929 5929 5929 5929 5929 5928 5928 5928 5928 5928 5928 5929 5929 5930 5930 5931 5932 5932 5933 5933 5934 5935 5935 5935 5935 5935 5935 5935 5936 5936 5936 5937 5937 5937 5937 5937 5937 5935 5934 5934 5936 5938 5938 5939 5939 5940 5940 5940 5940 5940 5940 5940 5940 5940 5940 5940 5940 5940 5940 5940 5940 5940 5940 5940 5941 5940
5921 5922 5923 5924 5925 5926 5927 5927 5928 5928 5929 5929 5930 5930 5931 5931 5931 5931 5931 5931 5931 5931 5931 5931 5930 5930 5930 5930 5930 5930 5931 5931 5931 5932 5933 5933 5934 5934 5934 5935 5936 5937 5936 5936 5935 5935 5936 5937 5937 5938 5938 5938 5938 5938 5937 5936 5935 5935 5937 5938 5939 5940 5940 5941 5941 5941 5941 5941 5941 5941 5941 5941 5941 5941 5941 5941 5941 5941 5941 5941 5941 5942 5942 5942 5942
5922 5922 5923 5924 5926 5926 5927 5928 5929 5929 5930 5930 5931 5931 5932 5932 5932 5932 5932 5932 5932 5932 5932 5932 5932 5932 5932 5932 5932 5932 5932 5933 5933 5934 5934 5935 5935 5936 5936 5936 5937 5938 5938 5938 5938 5937 5937 5937 5938 5938 5937 5938 5938 5938 5937 5936 5937 5938 5940 5940 5941 5941 5942 5942 5943 5943 5943 5943 5943 5943 5943 5943 5942 5942 5942 5942 5942 5942 5942 5943 5943 5943 5943 5943 5943
5922 5923 5923 5925 5926 5927 5928 5929 5930 5930 5931 5931 5932 5932 5933 5933 5934 5934 5934 5934 5934 5934 5934 5934 5934 5934 5934 5934 5934 5934 5934 5935 5935 5935 5936 5936 5937 5937 5937 5937 5937 5938 5940 5941 5941 5940 5940 5939 5939 5938 5938 5939 5939 5939 5939 5939 5940 5941 5942 5942 5943 5943 5943 5944 5944 5944 5944 5944 5944 5944 5944 5944 5944 5944 5944 5944 5944 5944 5944 5944 5944 5944 5944 5944 5944
5923 5923 5924 5926 5927 5928 5929 5930 5930 5931 5932 5933 5933 5933 5934 5934 5935 5935 5935 5935 5935 5935 5936 5936 5936 5936 5936 5935 5936 5936 5936 5936 5936 5937 5937 5937 5938 5938 5938 5938 5938 5939 5940 5941 5942 5942 5942 5941 5941 5941 5941 5941 5941 5941 5941 5941 5942 5943 5944 5944 5944 5945 5945 5945 5945 5945 5945 5945 5945 5946 5946 5946 5946 5946 5945 5945 5945 5945 5945 5945 5945 5945 5945 5945 5945
5924 5925 5925 5927 5928 5929 5930 5930 5931 5932 5933 5933 5934 5934 5935 5936 5936 5937 5937 5937 5937 5937 5937 5937 5938 5938 5938 5937 5937 5937 5938 5938 5938 5938 5938 5939 5939 5940 5940 5940 5940 5940 5940 5941 5941 5942 5942 5942 5942 5943 5943 5942 5942 5942 5943 5943 5944 5944 5945 5946 5946 5946 5946 5946 5946 5946 5946 5947 5947 5947 5947 5947 5947 5947 5947 5947 5947 5947 5947 5947 5947 5947 5947 5947 5947
5925 5926 5926 5928 5929 5930 5931 5931 5932 5933 5933 5934 5935 5935 5936 5937 5937 5938 5938 5938 5938 5938 5939 5939 5939 5939 5939 5939 5939 5939 5939 5939 5940 5940 5940 5940 5941 5941 5941 5942 5942 5942 5942 5942 5942 5942 5943 5943 5944 5944 5944 5944 5944 5944 5944 5945 5945 5946 5947 5947 5948 5948 5948 5948 5948 5948 5948 5948 5949 5949 5949 5949 5949 5949 5949 5948 5948 5948 5949 5949 5948 5948 5948 5948 5948
5926 5926 5927 5928 5930 5931 5931 5932 5933 5933 5934 5935 5936 5936 5937 5938 5938 5939 5939 5939 5939 5940 5940 5940 5940 5941 5941 5941 5941 5941 5941 5941 5941 5941 5942 5942 5942 5942 5943 5943 5943 5943 5943 5943 5944 5944 5944 5944 5945 5945 5945 5945 5946 5946 5946 5946 5947 5948 5948 5949 5949 5950 5950 5950 5950 5950 5950 5950 5950 5951 5950 5950 5950 5950 5950 5950 5950 5950 5950 5950 5950 5950 5950 5950 5950
5927 5927 5928 5929 5930 5931 5932 5933 5933 5934 5935 5936 5937 5937 5938 5939 5939 5940 5940 5940 5941 5941 5941 5941 5942 5942 5942 5942 5942 5942 5942 5942 5942 5943 5943 5943 5943 5944 5944 5944 5945 5945 5945 5945 5945 5945 5946 5946 5946 5946 5947 5947 5948 5948 5948 5948 5949 5949 5950 5950 5951 5951 5951 5952 5952 5952 5952 5952 5952 5952 5952 5952 5952 5952 5952 5952 5952 5952 5952 5952 5952 5951 5951 5951 5951
5927 5928 5928 5929 5930 5932 5933 5933 5934 5935 5936 5936 5937 5938 5939 5939 5940 5941 5941 5941 5942 5942 5942 5942 5943 5943 5943 5943 5943 5943 5944 5944 5944 5944 5944 5945 5945 5945 5946 5946 5946 5946 5946 5946 5947 5947 5947 5948 5948 5948 5949 5949 5950 5950 5950 5950 5950 5951 5951 5952 5952 5953 5953 5953 5953 5953 5953 5954 5954 5954 5954 5954 5954 5954 5954 5954 5954 5954 5954 5954 5953 5953 5953 5953 5953
5927 5928 5929 5930 5931 5932 5933 5934 5934 5935 5936 5937 5938 5939 5939 5940 5941 5941 5942 5942 5943 5943 5943 5944 5944 5944 5944 5944 5944 5944 5945 5945 5945 5945 5946 5946 5946 5947 5947 5947 5947 5947 5948 5948 5948 5949 5949 5949 5949 5950 5950 5951 5951 5952 5952 5952 5952 5952 5953 5953 5954 5954 5954 5954 5955 5955 5955 5955 5955 5955 5955 5955 5956 5956 5956 5956 5956 5956 5955 5955 5955 5955 5955 5955 5955
5927 5928 5929 5930 5931 5932 5933 5934 5935 5936 5937 5938 5938 5939 5940 5941 5941 5942 5943 5943 5943 5944 5944 5944 5945 5945 5945 5945 5945 5945 5946 5946 5947 5947 5947 5947 5948 5948 5948 5948 5949 5949 5949 5950 5950 5950 5951 5951 5951 5951 5951 5952 5952 5953 5953 5954 5954 5954 5954 5955 5955 5955 5955 5956 5956 5956 5957 5957 5957 5957 5957 5957 5957 5958 5958 5958 5957 5957 5957 5957 5957 5957 5957 5957 5957
5927 5929 5929 5930 5931 5932 5933 5934 5935 5936 5937 5938 5939 5939 5940 5941 5942 5943 5943 5944 5944 5944 5945 5945 5946 5946 5946 5946 5946 5947 5947 5947 5948 5948 5949 5949 5949 5949 5950 5950 5950 5950 5951 5951 5951 5952 5952 5952 5952 5953 5953 5954 5954 5954 5955 5955 5955 5955 5956 5956 5957 5957 5957 5957 5957 5958 5958 5958 5958 5958 5958 5959 5959 5959 5959 5959 5959 5959 5959 5959 5959 5959 5959 5959 5959
5927 5929 5929 5930 5931 5932 5933 5934 5935 5936 5937 5938 5939 5940 5940 5941 5942 5943 5944 5944 5945 5945 5946 5946 5946 5947 5947 5947 5947 5948 5948 5948 5949 5949 5950 5950 5950 5950 5951 5951 5952 5952 5952 5953 5953 5953 5954 5954 5954 5954 5955 5955 5956 5956 5956 5956 5957 5957 5957 5957 5958 5958 5958 5958 5959 5959 5960 5960 5960 5960 5960 5960 5960 5961 5961 5961 5960 5960 5960 5960 5960 5960 5961 5961 5961
5927 5929 5930 5930 5931 5932 5933 5934 5935 5936 5938 5938 5939 5940 5941 5942 5943 5944 5944 5945 5946 5946 5947 5947 5947 5947 5948 5948 5948 5949 5949 5949 5950 5950 5951 5951 5951 5951 5952 5953 5953 5953 5954 5954 5954 5955 5955 5956 5956 5956 5956 5957 5957 5957 5957 5958 5958 5958 5958 5959 5959 5959 5959 5960 5960 5961 5961 5961 5961 5961 5961 5962 5962 5962 5962 5962 5962 5962 5962 5962 5962 5962 5962 5962 5962
5927 5928 5929 5930 5931 5932 5933 5934 5935 5936 5938 5938 5939 5940 5941 5942 5943 5944 5945 5946 5946 5947 5947 5948 5948 5948 5948 5949 5949 5950 5950 5950 5951 5951 5952 5952 5952 5952 5953 5953 5954 5955 5955 5956 5956 5956 5957 5957 5958 5958 5958 5958 5958 5958 5959 5959 5959 5959 5960 5960 5960 5960 5960 5961 5961 5962 5962 5962 5962 5963 5963 5963 5963 5963 5963 5963 5963 5963 5964 5964 5964 5964 5964 5964 5964
5927 5928 5929 5930 5931 5932 5933 5934 5935 5937 5938 5939 5940 5940 5941 5942 5943 5944 5945 5946 5946 5947 5948 5948 5949 5949 5949 5950 5950 5951 5951 5951 5952 5952 5953 5953 5953 5953 5954 5954 5955 5956 5956 5957 5957 5957 5958 5958 5959 5959 5959 5959 5959 5960 5960 5960 5961 5961 5961 5961 5961 5961 5961 5962 5962 5963 5963 5963 5964 5964 5964 5964 5964 5964 5964 5965 5965 5965 5965 5966 5966 5966 5966 5966 5966
5927 5928 5929 5930 5931 5932 5933 5934 5935 5937 5938 5939 5940 5941 5942 5942 5943 5944 5945 5945 5946 5947 5948 5949 5949 5949 5950 5950 5951 5952 5952 5953 5953 5953 5954 5954 5954 5954 5955 5955 5956 5956 5957 5958 5958 5958 5959 5959 5960 5960 5960 5960 5960 5961 5961 5961 5962 5962 5962 5962 5962 5962 5963 5963 5964 5964 5964 5964 5965 5965 5965 5965 5966 5966 5966 5966 5966 5967 5967 5967 5968 5967 5967 5967 5967
5927 5928 5928 5930 5931 5932 5933 5935 5936 5937 5938 5939 5940 5941 5942 5943 5943 5944 5944 5945 5946 5947 5948 5949 5949 5950 5951 5951 5952 5952 5953 5953 5954 5954 5954 5955 5955 5955 5955 5956 5956 5957 5958 5958 5959 5959 5960 5960 5960 5961 5961 5961 5961 5962 5962 5962 5963 5963 5964 5964 5964 5964 5964 5964 5965 5965 5965 5965 5966 5966 5966 5966 5967 5967 5967 5967 5968 5968 5969 5969 5969 5969 5969 5969 5969
5927 5927 5928 5929 5930 5932 5933 5934 5936 5937 5938 5939 5940 5941 5942 5943 5943 5944 5944 5945 5946 5947 5948 5949 5950 5950 5951 5952 5952 5953 5953 5954 5954 5954 5955 5955 5955 5956 5956 5956 5957 5957 5958 5959 5959 5960 5960 5961 5961 5961 5962 5962 5963 5963 5963 5963 5964 5964 5964 5964 5965 5965 5965 5965 5965 5966 5966 5966 5967 5967 5967 5967 5968 5968 5968 5969 5969 5970 5970 5970 5970 5970 5970 5971 5970
5926 5927 5928 5929 5930 5931 5932 5934 5935 5936 5937 5939 5939 5940 5942 5943 5944 5944 5945 5945 5946 5947 5948 5949 5950 5951 5951 5952 5953 5953 5953 5954 5954 5954 5955 5955 5956 5956 5956 5956 5957 5958 5958 5959 5959 5960 5961 5961 5961 5962 5962 5963 5963 5964 5964 5964 5964 5965 5965 5965 5965 5966 5966 5966 5966 5967 5967 5968 5968 5968 5968 5968 5969 5969 5970 5970 5971 5972 5972 5972 5972 5972 5972 5972 5972
5926 5927 5928 5929 5930 5931 5932 5933 5935 5936 5937 5938 5939 5941 5942 5943 5944 5945 5946 5946 5946 5947 5948 5949 5950 5951 5952 5952 5953 5953 5954 5954 5954 5955 5955 5955 5956 5956 5956 5956 5957 5958 5958 5959 5960 5960 5961 5961 5962 5962 5963 5963 5964 5964 5964 5964 5965 5965 5966 5966 5966 5966 5966 5967 5967 5967 5968 5968 5969 5969 5969 5969 5970 5970 5971 5972 5973 5973 5974 5974 5974 5974 5974 5974 5974
5925 5927 5928 5928 5929 5931 5932 5933 5934 5935 5937 5938 5940 5941 5942 5944 5945 5946 5946 5947 5947 5948 5948 5949 5950 5951 5952 5952 5953 5954 5954 5954 5954 5955 5955 5955 5956 5956 5956 5957 5957 5958 5959 5959 5960 5960 5961 5961 5962 5963 5963 5964 5964 5964 5965 5965 5965 5966 5966 5966 5967 5967 5967 5967 5968 5968 5969 5969 5970 5970 5970 5970 5971 5971 5972 5973 5974 5975 5975 5976 5976 5976 5976 5976 5976
5925 5926 5927 5928 5929 5930 5931 5932 5933 5935 5936 5938 5940 5941 5942 5944 5945 5946 5947 5947 5948 5948 5948 5949 5950 5951 5952 5953 5953 5954 5954 5955 5955 5955 5955 5956 5956 5956 5957 5957 5958 5958 5959 5959 5960 5960 5961 5962 5962 5963 5963 5964 5964 5965 5965 5965 5966 5966 5967 5967 5967 5967 5967 5968 5969 5969 5970 5970 5970 5971 5971 5971 5972 5973 5973 5974 5975 5976 5977 5977 5977 5978 5978 5978 5977
5924 5925 5926 5927 5928 5929 5930 5931 5933 5934 5936 5937 5939 5941 5942 5944 5944 5945 5946 5946 5946 5946 5947 5948 5950 5951 5952 5953 5954 5954 5954 5955 5955 5955 5956 5956 5956 5957 5957 5958 5958 5959 5959 5960 5960 5961 5961 5962 5963 5963 5964 5964 5964 5965 5966 5966 5966 5967 5967 5967 5967 5968 5968 5969 5969 5970 5971 5971 5971 5972 5972 5972 5973 5974 5974 5975 5976 5977 5978 5978 5978 5979 5979 5979 5979
5923 5925 5926 5927 5928 5929 5930 5931 5932 5934 5935 5937 5939 5940 5942 5943 5944 5944 5945 5945 5945 5946 5946 5948 5950 5951 5952 5954 5954 5954 5955 5955 5955 5956 5956 5956 5957 5957 5958 5959 5959 5959 5960 5960 5961 5961 5962 5963 5963 5963 5964 5964 5965 5965 5966 5966 5967 5967 5968 5968 5968 5968 5969 5970 5970 5971 5972 5972 5972 5973 5973 5974 5974 5975 5975 5976 5977 5978 5979 5979 5979 5980 5980 5980 5980
5923 5924 5925 5926 5927 5928 5929 5930 5932 5933 5935 5937 5938 5940 5941 5942 5943 5943 5944 5945 5945 5946 5947 5948 5949 5951 5952 5954 5955 5955 5955 5955 5955 5956 5956 5957 5957 5958 5958 5959 5959 5960 5960 5961 5961 5962 5962 5963 5963 5964 5964 5965 5965 5966 5967 5967 5967 5968 5969 5969 5969 5969 5970 5971 5971 5972 5973 5973 5973 5974 5974 5975 5975 5976 5977 5977 5978 5979 5979 5980 5980 5980 5980 5980 5981
5922 5924 5925 5926 5926 5927 5928 5930 5931 5933 5934 5936 5938 5939 5940 5941 5942 5943 5944 5944 5946 5947 5948 5948 5949 5950 5952 5953 5955 5955 5956 5956 5955 5956 5956 5957 5957 5958 5958 5959 5960 5960 5961 5961 5961 5962 5962 5963 5963 5964 5964 5965 5966 5967 5967 5967 5968 5968 5969 5970 5970 5970 5971 5972 5972 5973 5974 5974 5974 5975 5975 5976 5976 5977 5978 5978 5979 5980 5980 5980 5981 5981 5981 5981 5982
5922 5923 5924 5925 5926 5927 5928 5929 5930 5932 5933 5935 5937 5938 5940 5941 5942 5943 5944 5945 5946 5946 5947 5948 5949 5950 5951 5953 5954 5955 5956 5956 5956 5956 5956 5957 5957 5958 5958 5959 5960 5961 5961 5961 5962 5962 5963 5963 5963 5964 5964 5965 5966 5967 5967 5968 5968 5969 5970 5970 5970 5971 5972 5972 5973 5974 5974 5975 5975 5976 5976 5977 5977 5978 5978 5979 5980 5980 5981 5981 5982 5982 5982 5982 5982
5921 5922 5923 5925 5926 5927 5927 5928 5929 5930 5932 5934 5936 5938 5939 5940 5942 5943 5944 5945 5945 5946 5946 5947 5949 5950 5951 5952 5954 5955 5955 5956 5956 5956 5956 5957 5958 5958 5958 5959 5960 5961 5961 5962 5962 5963 5963 5963 5964 5964 5965 5965 5966 5967 5968 5969 5969 5970 5970 5971 5971 5972 5972 5973 5973 5974 5975 5975 5976 5977 5977 5978 5978 5978 5979 5979 5980 5980 5981 5982 5982 5983 5983 5983 5983
5921 5922 5923 5924 5925 5926 5927 5928 5929 5930 5931 5933 5935 5937 5939 5940 5941 5942 5944 5944 5945 5945 5946 5947 5948 5949 5950 5952 5953 5954 5955 5955 5956 5956 5957 5957 5958 5958 5959 5960 5960 5961 5962 5962 5963 5963 5963 5964 5964 5964 5965 5966 5967 5967 5968 5969 5970 5970 5971 5971 5972 5973 5973 5974 5974 5975 5975 5976 5977 5977 5978 5978 5979 5979 5979 5979 5980 5981 5982 5982 5983 5983 5984 5984 5984